Dewpoint
31 28 28 30 31 28 31 31 34 35 37 40 42 44 41 40 39 39 38 38 39 40 41 43 44 46 49 51 52 55 59 58 59 59 58 58 59 57 57 57 56 55 57
29 27 26 27 28 27 28 29 30 32 35 38 41 41 40 40 39 38 38 37 37 38 38 39 41 42 44 46 47 49 52 57 59 56 56 53 55 57 57 57 56 55 55
27 26 25 25 25 26 26 27 27 29 32 35 38 39 40 38 37 37 36 36 35 36 37 37 38 40 41 41 43 44 45 48 54 58 55 52 50 54 56 56 55 55 55
26 25 24 23 23 24 24 23 25 26 28 30 32 34 35 34 34 35 33 33 32 33 35 36 37 37 38 39 40 41 42 44 46 51 57 57 53 52 51 55 55 55 54
26 24 23 23 23 23 22 22 22 23 25 27 28 27 27 30 30 30 31 30 30 31 32 34 34 35 36 37 37 39 39 39 41 42 45 52 52 52 50 50 53 55 54
25 23 22 24 22 20 18 19 19 20 22 23 25 24 23 23 23 23 26 27 27 28 29 31 33 33 34 35 36 37 37 37 38 38 40 39 41 44 47 48 51 53 54
22 20 19 22 21 18 17 17 17 17 18 19 20 21 21 20 20 21 22 22 23 23 26 29 31 31 32 33 34 34 35 36 36 36 37 37 37 38 40 45 45 47 49
20 18 18 19 20 18 16 15 14 14 14 15 16 18 19 18 18 19 20 21 21 22 23 24 28 29 30 31 32 32 33 34 35 34 35 35 36 37 37 37 39 44 45
19 18 19 19 19 17 15 14 14 14 14 13 13 14 15 16 16 16 17 18 19 17 20 21 22 25 28 29 30 30 29 31 32 33 33 33 34 36 36 36 36 36 41
19 18 19 18 18 17 14 12 12 10 11 12 12 13 14 14 15 17 16 16 17 18 19 20 20 21 24 25 27 28 28 28 29 29 29 30 32 33 34 34 35 35 34
21 20 18 18 15 15 13 10 10 9 9 10 11 12 13 12 13 13 14 15 15 16 17 18 19 19 21 23 24 24 25 27 27 27 28 26 29 28 29 32 32 32 33
25 23 18 16 13 12 12 10 8 8 9 10 11 12 16 20 27 24 15 14 13 14 15 16 17 17 20 22 23 23 24 24 23 26 26 25 25 27 28 29 29 30 32
23 21 17 15 11 9 9 9 9 9 12 18 26 24 19 13 12 18 12 14 13 13 14 15 16 16 17 20 23 23 23 23 22 23 23 23 24 25 26 29 28 29 27
21 19 15 13 10 8 7 9 12 19 23 24 19 25 19 18 20 12 12 13 13 12 13 15 16 16 15 15 21 23 22 21 20 22 24 22 22 23 24 25 25 24 27
19 18 15 11 9 7 8 16 18 16 14 15 14 20 25 20 16 15 11 11 12 11 12 12 15 15 12 15 20 22 21 20 19 20 21 21 22 20 21 20 21 23 25
18 17 15 11 8 7 14 21 24 25 25 24 24 25 24 23 20 18 11 10 10 10 11 11 13 13 11 17 20 21 19 18 18 18 19 19 19 18 17 18 20 21 21
16 16 12 9 13 20 23 23 24 25 24 25 24 24 23 23 18 12 9 8 8 9 10 10 12 12 12 17 19 19 17 17 17 17 18 17 16 19 18 19 20 20 21
19 22 23 23 22 21 22 23 24 24 24 23 23 23 22 19 13 9 8 7 8 8 9 11 12 12 12 16 18 19 17 17 17 17 17 17 18 18 19 19 22 23 22
21 23 23 23 23 23 24 24 24 24 23 22 21 21 16 10 8 7 7 7 8 9 11 11 12 12 13 15 16 17 16 16 16 17 18 18 19 18 18 19 19 21 23
22 22 23 22 22 22 23 23 22 22 21 20 20 14 9 8 7 7 7 8 10 10 11 11 12 12 11 13 15 16 15 15 16 19 18 20 19 17 17 19 19 19 22
21 22 21 20 20 21 22 21 20 19 20 17 11 8 7 7 7 8 10 10 10 11 11 11 11 11 11 12 14 15 15 15 16 18 18 19 17 16 17 19 25 22 24
20 20 19 19 20 20 19 18 17 16 11 7 6 6 7 8 8 10 10 11 11 11 11 11 11 12 12 14 15 15 15 15 15 15 16 17 18 16 16 18 19 16 18
19 20 19 19 20 19 18 12 8 6 6 5 6 7 9 10 10 9 10 11 11 10 11 11 12 13 14 14 16 17 16 17 18 17 15 14 16 18 20 18 15 16 17
18 18 17 17 16 14 6 5 5 5 5 6 7 9 10 12 11 11 12 12 11 11 11 13 14 15 15 16 17 16 16 19 20 20 20 23 19 17 18 15 13 16 17
17 17 15 9 6 5 4 4 4 6 6 7 9 10 9 11 12 11 11 12 12 13 15 17 16 16 16 16 16 16 16 18 19 18 22 19 15 12 11 10 10 15 14
13 6 5 4 5 4 4 5 7 7 7 7 8 8 11 12 11 10 10 12 14 13 14 13 13 14 14 13 14 14 15 15 19 19 13 12 11 11 10 10 11 13 11
Wind_Speed
4 2 4 6 10 13 15 16 17 17 15 13 10 7 13 14 14 14 17 16 15 14 15 12 13 13 11 12 14 10 10 13 12 10 15 16 13 14 14 16 18 19 19
5 1 3 6 8 11 14 16 17 15 15 11 9 5 4 8 12 13 17 20 20 20 17 16 15 14 12 12 12 12 7 7 13 16 15 9 15 17 18 14 17 20 19
8 4 1 4 6 9 12 14 15 16 16 16 12 10 6 8 10 16 16 18 18 18 19 17 15 14 13 13 14 14 10 7 8 16 14 8 17 13 12 22 21 21 18
8 6 3 1 4 5 8 12 13 15 15 16 14 16 12 10 10 9 10 13 17 18 18 15 14 14 12 15 14 14 12 10 7 8 12 16 4 5 7 15 22 22 23
12 10 7 4 1 3 6 8 11 14 14 15 15 13 13 9 9 10 11 14 15 17 18 16 14 14 12 13 14 15 17 13 9 9 7 7 4 7 6 9 10 17 20
13 9 7 6 3 2 4 6 9 11 12 14 14 15 15 14 15 15 14 13 12 12 15 15 15 13 12 12 12 12 15 15 15 14 14 13 6 6 3 8 15 24 20
14 13 12 10 6 3 3 5 7 9 10 12 14 13 12 12 13 13 12 12 12 12 14 12 14 14 14 12 11 11 14 14 15 16 14 13 12 12 8 4 1 7 2
14 15 15 13 10 7 6 6 6 6 7 9 10 10 11 11 11 11 11 12 11 12 13 13 11 12 13 13 13 12 12 12 13 14 15 11 13 13 14 12 8 4 10
16 16 14 15 13 10 8 7 7 6 5 6 8 9 9 11 11 11 11 11 11 11 13 13 13 12 13 14 13 13 14 14 12 12 13 11 12 14 13 13 14 9 1
15 15 17 16 15 13 10 9 7 7 7 6 5 6 6 10 9 10 12 11 10 10 11 12 13 13 13 14 13 12 14 13 13 12 14 12 11 11 12 14 13 11 8
14 17 18 17 16 14 12 10 8 7 7 7 7 7 5 11 8 9 9 10 9 11 12 12 12 12 12 13 13 12 12 12 12 13 13 13 12 11 11 9 10 11 10
11 12 18 19 17 16 13 11 9 8 7 8 8 7 7 8 8 9 8 8 9 9 10 10 11 11 10 11 12 12 12 13 12 11 11 11 11 11 11 9 10 10 10
14 7 13 20 18 16 14 13 11 10 9 9 7 9 9 6 5 7 7 7 7 7 8 9 9 10 9 9 9 10 12 12 12 11 10 9 11 10 7 6 8 9 11
14 8 12 15 16 14 14 13 12 10 7 6 5 5 4 8 7 5 7 7 8 8 8 9 8 10 9 9 6 6 9 11 12 12 11 10 11 9 10 7 7 6 5
14 11 8 9 12 14 13 12 10 8 6 6 5 7 3 3 7 9 7 6 8 8 8 9 9 10 9 10 11 5 6 10 12 12 12 11 12 11 12 10 9 9 8
15 15 6 13 16 16 14 10 8 5 4 4 2 2 3 3 5 7 7 6 7 8 8 9 9 10 10 13 13 11 6 8 10 11 12 12 12 10 13 13 12 11 9
11 10 6 8 11 12 10 9 6 5 3 2 2 2 4 5 6 7 6 7 7 7 7 7 7 8 9 12 12 12 4 6 8 9 10 11 11 13 11 13 14 12 11
9 9 9 11 11 11 10 8 5 4 2 2 2 3 4 6 7 5 6 8 7 8 8 6 7 8 8 13 12 11 4 5 5 8 10 10 11 11 13 12 8 8 8
6 7 8 8 8 7 4 3 4 3 1 3 3 4 7 7 6 6 6 7 7 8 7 7 8 10 8 13 13 11 7 6 7 8 9 10 10 13 15 12 10 9 10
3 5 6 6 6 4 3 3 3 3 4 4 5 6 6 6 6 5 7 6 7 7 8 9 9 11 11 13 13 13 8 8 8 7 7 9 12 16 16 12 11 12 13
4 5 6 6 5 4 4 4 3 5 4 5 6 5 5 7 4 6 5 6 7 7 9 10 11 11 12 13 15 15 11 11 10 8 6 6 15 17 17 19 7 10 14
5 5 5 4 4 4 4 4 2 2 4 4 5 6 6 6 6 5 5 6 6 7 10 11 12 10 11 12 14 15 14 13 9 10 11 13 18 20 19 18 17 18 16
4 4 3 2 1 2 1 3 3 2 4 5 5 6 6 5 5 6 6 5 7 9 11 10 11 12 10 10 15 15 13 14 13 11 15 21 20 18 14 15 20 16 10
3 2 2 1 2 2 4 3 3 3 4 5 6 6 5 5 6 6 5 6 9 11 11 11 11 12 11 11 12 13 13 16 13 15 16 14 15 17 11 10 12 11 7
0 1 2 4 1 4 5 5 4 3 5 5 5 4 6 7 7 7 8 8 9 10 10 9 10 10 11 12 17 16 14 12 13 18 6 5 8 10 12 11 12 9 6
2 2 3 5 5 6 6 4 3 4 5 6 4 8 7 6 9 10 12 11 11 12 13 14 14 11 15 19 20 20 21 20 19 5 8 8 8 10 11 12 13 8 12
Wind_Direction
167 103 34 13 8 15 16 13 8 5 12 8 13 15 33 27 29 29 23 25 25 21 29 27 20 9 358 355 351 340 280 223 210 244 238 240 238 228 227 213 205 200 200
200 200 20 14 16 14 15 13 11 3 12 11 5 39 32 35 37 29 26 21 22 23 28 26 22 13 3 6 1 3 332 299 234 234 247 255 234 233 219 218 208 208 200
219 222 297 11 10 23 19 20 15 8 12 14 22 27 33 41 29 24 22 19 20 23 28 23 22 20 19 14 5 8 357 321 297 240 240 256 254 210 202 212 212 207 204
210 208 212 348 18 26 34 34 30 24 21 19 36 45 49 45 17 23 19 19 20 19 21 16 24 25 23 27 13 10 7 353 349 317 271 245 307 272 224 210 210 208 208
212 210 201 189 89 45 43 41 41 38 34 37 39 46 48 42 27 19 21 20 20 19 12 8 15 21 28 27 22 17 21 19 12 15 337 323 249 226 267 307 217 213 217
215 209 195 177 163 92 62 51 50 44 44 50 49 55 56 47 43 33 25 18 17 17 17 7 9 11 13 24 23 22 31 25 24 25 25 23 1 352 329 252 255 229 212
207 201 194 193 189 166 120 77 60 52 48 54 54 54 55 58 58 43 36 25 20 17 8 15 16 10 12 16 18 24 40 28 34 25 22 21 18 5 331 307 357 321 53
216 210 202 195 191 177 151 127 106 88 66 60 56 53 51 53 49 46 37 29 20 12 6 13 20 18 15 14 27 27 29 31 37 29 31 24 14 16 19 5 352 300 13
224 218 207 197 185 177 173 160 142 124 107 90 76 62 58 51 47 42 41 33 19 19 10 9 14 16 16 19 20 26 26 24 33 26 32 31 13 16 10 21 21 342 48
239 223 209 199 187 178 167 160 153 138 123 105 100 81 62 59 38 40 33 31 22 9 14 13 13 15 20 16 18 28 20 27 24 24 27 28 27 23 10 14 12 19 352
257 235 213 199 187 175 167 159 150 132 115 104 91 78 56 53 27 35 26 19 18 11 15 10 10 13 19 17 21 18 22 26 22 21 27 17 27 30 21 16 17 10 12
326 258 209 188 182 180 168 160 147 133 118 102 85 72 64 72 41 20 13 15 16 17 15 9 9 9 12 17 21 19 12 13 17 17 18 19 14 19 15 10 18 18 16
328 289 199 190 183 176 166 156 146 130 115 91 69 48 38 28 35 21 352 3 7 11 14 14 12 4 359 4 15 19 11 7 8 4 7 14 7 358 358 27 26 17 359
334 293 217 190 176 170 160 147 130 127 122 117 115 88 31 34 13 341 354 358 359 4 4 3 2 1 354 348 351 25 19 9 1 355 354 355 350 340 350 1 360 350 343
343 332 250 190 169 159 151 136 126 119 119 104 86 74 48 338 15 9 354 3 9 6 8 9 7 3 356 349 353 20 36 14 358 351 350 349 341 356 352 346 339 345 341
339 339 210 176 170 160 146 132 129 116 109 120 137 90 48 12 11 356 348 6 1 0 7 8 7 8 356 343 347 355 38 16 1 347 341 338 336 340 342 339 335 335 336
358 19 57 120 119 121 130 135 125 122 134 169 104 62 30 5 351 340 348 357 354 354 356 356 6 357 343 344 343 340 28 360 346 339 333 336 336 336 324 321 320 314 309
14 36 66 82 87 102 109 118 128 142 134 114 70 39 4 340 328 334 348 346 344 346 343 342 350 349 339 343 342 336 342 311 305 317 321 323 322 331 323 319 351 333 309
60 65 78 94 92 90 104 131 134 117 131 85 41 6 339 325 329 336 338 341 339 334 344 347 350 345 346 346 342 344 314 299 301 304 300 309 318 317 313 321 315 306 291
108 98 88 86 84 61 65 100 92 81 69 26 350 316 315 323 323 344 341 335 343 346 350 351 352 347 348 345 342 344 348 331 322 316 302 322 323 319 318 316 306 287 289
110 86 94 99 81 57 57 75 66 63 16 338 313 332 356 335 345 347 342 343 347 352 355 347 339 338 337 334 337 334 330 327 327 329 315 296 311 310 310 308 329 305 309
92 104 104 93 67 50 58 49 31 352 320 327 333 341 339 331 336 337 339 339 355 349 338 334 329 317 316 319 326 326 323 317 326 321 314 298 300 309 314 323 317 313 329
89 80 113 143 116 53 315 324 323 359 336 334 337 332 330 338 353 335 336 336 341 333 323 316 312 306 306 298 309 312 307 309 307 296 292 302 311 314 320 313 312 332 325
120 106 97 9 322 281 321 329 319 356 331 323 328 329 338 335 351 340 339 321 324 318 307 302 289 285 282 278 274 277 280 280 278 278 281 288 300 316 327 334 317 305 291
274 274 296 290 273 327 314 324 331 341 320 311 316 333 323 327 324 317 307 307 296 279 285 288 289 300 298 296 302 316 314 304 297 312 341 4 355 319 309 309 305 298 315
268 293 306 305 305 306 303 315 327 328 309 304 307 318 309 307 311 312 315 316 311 312 312 311 312 306 309 313 315 317 315 314 318 50 344 328 317 306 304 300 293 281 300